Location: Butler
(32.5575°N, 84.2380°W)
Time: 05:17:52
(UTC+00:00)

N. Korean satellite - Pass Details

Date: 08 December 2021
Orbit: 447 x 491 km, 97.3° (Epoch: 22 January)

Event Time Altitude Azimuth Distance (km) Brightness Sun altitude
Rises 10:47:10 0° 10° (N) 2,450 10.1 -20.4°
Reaches altitude 10° 10:49:12 10° 10° (N) 1,576 9.1 -20.0°
Maximum altitude 10:52:34 86° 284° (WNW) 454 6.2 -19.3°
Drops below altitude 10° 10:55:56 10° 194° (SSW) 1,574 9.2 -18.6°
Sets 10:57:58 0° 193° (SSW) 2,447 10.2 -18.2°
